Location: �perlecques
(50.8057°N, 2.1521°E)
Time: 19:34:30
(UTC+00:00)

Tiros 1 - Pass Details

Date: 08 August 2021
Orbit: 630 x 663 km, 48.4° (Epoch: 28 September)

Event Time Altitude Azimuth Distance (km) Brightness Sun altitude
Rises 15:57:24 0° 234° (SW) 2,988 11.5 31.1°
Reaches altitude 10° 15:59:50 10° 228° (SW) 2,076 10.8 30.7°
Maximum altitude 16:04:21 42° 158° (SSE) 940 8.2 30.0°
Drops below altitude 10° 16:08:51 10° 88° (E) 2,070 9.3 29.3°
Sets 16:11:17 0° 81° (E) 2,978 10.0 28.9°
